Pocatello, ID

10:02 AM MST on February 27, 2017 (GMT -0700)
Pocatello Regional

Weather History for KPIH - August, 2013

Change the Weather History Date:

Saturday, August 31, 2013

  Actual Average Record
Temperature  
Mean Temperature 70 °F 65 °F  
Max Temperature 92 °F 83 °F 97 °F (1955)
Min Temperature 47 °F 47 °F 32 °F (1969)
Degree Days  
Heating Degree Days 0 2  
Month to date heating degree days 0 23  
Since 1 June heating degree days 90 177  
Since 1 July heating degree days 0 46  
Cooling Degree Days 5 2  
Month to date cooling degree days 233 147  
Year to date cooling degree days 627 370  
Since 1 June cooling degree days 618 365  
Growing Degree Days 18 (Base 50)    
Moisture  
Dew Point 33 °F    
Average Humidity 39    
Maximum Humidity 71    
Minimum Humidity 7    
Precipitation  
Precipitation 0.00 in 0.02 in 0.38 in (1963)
Month to date precipitation 0.21 0.61  
Year to date precipitation 4.03 8.07  
Snow  
Snow 0.00 in - - ()
Month to date snowfall 0.0  
Since 1 June snowfall 0.0  
Since 1 July snowfall 0.0  
Snow Depth 0.00 in    
Sea Level Pressure  
Sea Level Pressure 29.98 in    
Wind  
Wind Speed 3 mph (WNW)    
Max Wind Speed 10 mph    
Max Gust Speed 15 mph    
Visibility 10 miles    
Events      
T = Trace of Precipitation, MM = Missing Value Source: NWS Daily Summary

Daily Weather History Graph

Daily Weather History Graph

Search for Another Location

Airport or City:

Trip Planner

Search our weather history database for the weather conditions in past years. The results will help you decide how hot, cold, wet, or windy it might be!

Date:

Astronomy

Aug. 31, 2013 Rise Set
Actual Time 6:54 AM MDT 8:06 PM MDT
Civil Twilight 6:24 AM MDT 8:35 PM MDT
Nautical Twilight 5:49 AM MDT 9:10 PM MDT
Astronomical Twilight 5:12 AM MDT 9:46 PM MDT
Moon 2:22 AM MDT (8/31) 5:10 PM MDT (8/31)
Length of Visible Light 14h 10m
Length of Day
13h 11m
Waning Crescent, 20% of the Moon is Illuminated
Aug 31
Waning Crescent
Sep 5
New
Sep 12
First Quarter
Sep 19
Full
Sep 26
Last Quarter

Hourly Weather History & Observations

Time (MDT) Temp. Dew Point Humidity Pressure Visibility Wind Dir Wind Speed Gust Speed Precip Events Conditions
12:53 AM 64.9 °F 39.0 °F 39% 29.96 in 10.0 mi South 5.8 mph - N/A   Clear
1:53 AM 57.0 °F 39.0 °F 51% 29.99 in 10.0 mi Calm Calm - N/A   Clear
2:53 AM 59.0 °F 41.0 °F 51% 29.98 in 10.0 mi Calm Calm - N/A   Clear
3:53 AM 59.0 °F 41.0 °F 51% 29.98 in 10.0 mi Calm Calm - N/A   Clear
4:53 AM 53.1 °F 39.0 °F 59% 29.99 in 10.0 mi Calm Calm - N/A   Clear
5:53 AM 55.9 °F 39.0 °F 53% 29.99 in 10.0 mi Calm Calm - N/A   Clear
6:53 AM 48.9 °F 39.0 °F 69% 30.03 in 10.0 mi SSW 6.9 mph - N/A   Clear
7:53 AM 53.1 °F 39.9 °F 61% 30.05 in 10.0 mi North 3.5 mph - N/A   Clear
8:53 AM 60.1 °F 46.0 °F 60% 30.06 in 10.0 mi NW 4.6 mph - N/A   Clear
9:53 AM 69.1 °F 41.0 °F 36% 30.04 in 10.0 mi West 3.5 mph - N/A   Clear
10:53 AM 75.0 °F 37.9 °F 26% 30.04 in 10.0 mi West 5.8 mph - N/A   Clear
11:53 AM 78.1 °F 32.0 °F 19% 30.02 in 10.0 mi SSW 5.8 mph - N/A   Clear
12:53 PM 82.0 °F 26.1 °F 13% 30.00 in 10.0 mi Variable 3.5 mph - N/A   Clear
1:53 PM 86.0 °F 28.9 °F 13% 30.00 in 10.0 mi Variable 6.9 mph - N/A   Clear
2:53 PM 88.0 °F 27.0 °F 11% 29.97 in 10.0 mi NW 5.8 mph - N/A   Clear
3:53 PM 89.1 °F 23.0 °F 9% 29.95 in 10.0 mi NW 6.9 mph - N/A   Clear
4:53 PM 90.0 °F 19.0 °F 7% 29.94 in 10.0 mi NW 4.6 mph - N/A   Clear
5:53 PM 90.0 °F 17.1 °F 7% 29.92 in 10.0 mi Variable 3.5 mph - N/A   Clear
6:53 PM 89.1 °F 19.0 °F 8% 29.92 in 10.0 mi East 4.6 mph - N/A   Clear
7:53 PM 78.1 °F 37.0 °F 23% 29.94 in 10.0 mi East 4.6 mph - 0.00 in   Clear
8:53 PM 71.1 °F 37.0 °F 29% 29.95 in 10.0 mi East 4.6 mph - 0.00 in   Clear
9:53 PM 66.9 °F 30.0 °F 25% 29.94 in 9.0 mi Calm Calm - N/A   Clear
10:53 PM 63.0 °F 34.0 °F 34% 29.94 in 10.0 mi Calm Calm - N/A   Clear
11:53 PM 63.0 °F 34.0 °F 34% 29.93 in 10.0 mi Calm Calm - N/A   Clear